This is the latest recevied weather packets stored in our database for station/object OE3UKW. If no packets are shown the sender has not sent any weather packets the latest 10 day(s).
| Time | Temp. | Humidity | Pressure | Rain* | Wind** | Luminosity | Snow |
|---|---|---|---|---|---|---|---|
| 1777396273 | 16.67° C | 24% | 1019.9 hPa | 0 mm | - | 32 W/m² | - |
| 1777395672 | 16.67° C | 23% | 1019.7 hPa | 0 mm | - | 39 W/m² | - |
| 1777395072 | 17.22° C | 24% | 1019.6 hPa | 0 mm | - | 43 W/m² | - |
| 1777394472 | 17.22° C | 22% | 1019.7 hPa | 0 mm | - | 52 W/m² | - |
| 1777393872 | 17.78° C | 21% | 1019.6 hPa | 0 mm | - | 60 W/m² | - |
| 1777393272 | 18.33° C | 21% | 1019.6 hPa | 0 mm | - | 211 W/m² | - |
| 1777392672 | 18.33° C | 20% | 1019.6 hPa | 0 mm | - | 234 W/m² | - |
| 1777392072 | 18.33° C | 21% | 1019.6 hPa | 0 mm | - | 266 W/m² | - |
| 1777391472 | 18.33° C | 21% | 1019.6 hPa | 0 mm | - | 292 W/m² | - |
| 1777390872 | 18.33° C | 22% | 1019.8 hPa | 0 mm | - | 317 W/m² | - |
| 1777390272 | 18.33° C | 21% | 1019.7 hPa | 0 mm | - | 347 W/m² | - |
| 1777389672 | 18.89° C | 21% | 1019.9 hPa | 0 mm | - | 377 W/m² | - |
| 1777389072 | 18.89° C | 20% | 1019.7 hPa | 0 mm | - | 401 W/m² | - |
| 1777388472 | 18.89° C | 19% | 1019.7 hPa | 0 mm | - | 434 W/m² | - |
| 1777387872 | 18.89° C | 20% | 1019.9 hPa | 0 mm | - | 306 W/m² | - |
| 1777387272 | 19.44° C | 20% | 1019.9 hPa | 0 mm | - | 552 W/m² | - |
| 1777386672 | 19.44° C | 20% | 1019.9 hPa | 0 mm | - | 567 W/m² | - |
| 1777386072 | 19.44° C | 19% | 1019.9 hPa | 0 mm | - | 336 W/m² | - |
| 1777385472 | 20° C | 19% | 1020 hPa | 0 mm | - | 562 W/m² | - |
| 1777384872 | 20° C | 19% | 1020 hPa | 0 mm | - | 620 W/m² | - |
| 1777384272 | 20.56° C | 19% | 1020.1 hPa | 0 mm | - | 683 W/m² | - |
| 1777383672 | 20.56° C | 19% | 1020.2 hPa | 0 mm | - | 702 W/m² | - |
| 1777383072 | 20.56° C | 19% | 1020.3 hPa | 0 mm | - | 677 W/m² | - |
| 1777382472 | 20.56° C | 20% | 1020.5 hPa | 0 mm | - | 657 W/m² | - |
| 1777381872 | 20.56° C | 20% | 1020.4 hPa | 0 mm | - | 728 W/m² | - |
* Rain latest hour (hover to see other rain measurements)
** Current wind speed in m/s (hover to see current wind gust speed)